Погода в Живце

Польша     49°41′01″N   19°12′04″E
темп.,
°C
ветер,
м/с
пор.,
м/с
влажн.,
%
обл.,
%
осадки,
мм/ч
давл.,
гПа
погр.,
м
1 марта, пн
пн101:00+2сз259668 0.0 1033309
04:00+1с2296100 0.0 1033185
07:000ссз1196100 0.0 1034113
10:00+2ссз118995 0.0 1035252
13:00+3ссв228092 0.0 1036478
16:00+4св127350 0.0 1035456
19:00+1юв118924 0.0 103622
22:00+1ю22860 0.0 103622
2 марта, вт
вт201:00+1ююз12780 0.0 103622
04:000ююз22730 0.0 103522
07:00+1ююз23680 0.0 103531
10:00+7зюз22490 0.0 1034277
13:00+10зсз12400 0.0 1033562
16:00+9зсз12550 0.0 103241
19:00+4юз22710 0.0 103322
22:00+3ююз22720 0.0 103422
3 марта, ср
ср301:00+2ю11690 0.0 103322
04:00+2ююз12690 0.0 103222
07:00+2ююз12680 0.0 103222
10:00+8св01500 0.0 1031250
13:00+11ссз11410 0.0 1029505
16:00+10с11540 0.0 102648
19:00+5юз22690 0.0 102624
22:00+3ююз34800 0.0 102561
4 марта, чт
чт401:00+2ююз457819 0.0 102390
04:00+2ююз46797 0.0 1021112
07:00+2ююз46805 0.0 1020109
10:00+8юз356121 0.0 1018444
13:00+11зюз465430 0.0 1016899
16:00+10зюз365933 0.0 1014844
19:00+5ююз358060 0.0 1013119
22:00+5ююз3581100 0.0 1012100
5 марта, пт
пт501:00+4ююз238199 0.0 101057
04:00+4ююз238299 0.0 100990
07:00+4юз228999 0.5 100880
10:00+4зсз1296100 2.7 1009139
13:00+1зсз2298100 8.1 1011111
16:000ссз4799100 2.8 1014397
19:00−2с4897100 6.3 1017666
22:00−4св0291100 1.6 1021134